Location: Austin
(30.3000°N, 97.7500°W)
Time: 12:22:41
(UTC-05:00)

Atlas Centaur 2 - Pass Details

Date: 08 April 2026
Orbit: 456 x 1247 km, 30.4° (Epoch: 11 April)

Event Time Altitude Azimuth Distance (km) Brightness Sun altitude
Rises 23:11:36 0° 278° (W) 3,670 6.2 -39.2°
Reaches altitude 10° 23:14:13 10° 272° (W) 2,830 5.4 -39.6°
Enters shadow 23:17:05 25° 257° (WSW) 2,038 4.3 -40.1°
